Location: Newark
(12.4436°N, 0.6167°W)
Time: 03:05:15
(UTC+00:00)

Transit 2A - Pass Details

Date: 08 December 2019
Orbit: 601 x 958 km, 66.7° (Epoch: 23 January)

Event Time Altitude Azimuth Distance (km) Brightness Sun altitude
Rises 16:47:35 0° 357° (N) 2,954 8.8 10.1°
Reaches altitude 10° 16:50:04 10° 10° (N) 2,090 8.0 9.6°
Maximum altitude 16:54:08 28° 69° (ENE) 1,318 6.8 8.7°
Drops below altitude 10° 16:58:30 10° 127° (SE) 2,277 8.2 7.7°
Sets 17:01:19 0° 138° (SE) 3,271 9.1 7.1°
